Wind_Speed
8 9 11 12 13 15 16 17 19 21 24 26 28 30 32 38 41 45 49 55 61 66 70 75 78 79 81 83 85 86 86 82 78 75 72 70 68 67 66 65 64 64 63 62
9 11 12 13 14 16 17 19 20 20 24 28 30 31 34 39 43 47 53 59 65 70 74 78 80 81 83 85 86 85 82 79 77 75 73 69 66 63 60 59 58 58 58 59
11 12 13 15 16 18 19 21 23 25 26 28 33 34 35 41 46 51 57 63 68 74 78 80 81 82 83 84 83 82 80 78 75 71 66 62 59 56 54 52 51 51 51 51
13 14 16 17 18 19 19 21 23 26 28 31 33 38 38 45 51 56 61 66 72 78 80 80 81 82 83 83 82 80 77 73 69 65 62 60 57 55 53 52 51 50 50 49
15 16 16 17 18 19 20 22 25 27 30 32 34 40 45 50 55 60 65 71 76 79 79 80 81 82 82 82 80 77 72 68 64 63 61 59 58 57 56 56 54 52 50 48
17 17 17 18 19 20 22 24 25 29 34 38 42 45 48 52 58 64 70 74 77 79 79 80 81 82 81 81 78 72 67 65 64 62 61 60 59 59 58 55 52 49 48 46
16 17 17 18 19 21 24 27 32 36 38 40 42 45 49 56 62 67 72 75 77 79 80 81 81 81 80 78 73 68 65 64 63 62 60 60 60 60 57 53 50 47 45 44
17 16 17 18 20 23 26 28 32 35 37 38 42 48 53 57 62 67 72 76 79 79 80 80 80 80 79 74 68 66 65 65 63 62 61 61 61 58 54 51 48 46 45 44
17 17 18 19 22 25 27 29 31 34 37 42 46 49 54 59 63 68 74 77 78 78 79 79 79 79 75 70 66 65 65 64 63 61 61 61 59 56 52 50 48 47 46 45
17 17 18 20 23 25 27 30 33 36 41 45 48 52 56 60 65 71 75 76 77 78 78 78 78 77 71 67 65 65 65 64 62 62 61 60 57 55 52 51 49 48 47 46
18 18 18 21 22 25 27 30 32 36 40 46 52 54 57 61 67 72 75 76 77 77 77 77 77 74 68 65 65 65 64 63 62 61 60 58 56 55 54 53 52 50 48 47
19 19 19 20 22 25 28 32 35 38 41 44 49 55 58 63 69 73 76 76 76 76 76 77 76 70 65 64 64 65 64 63 62 60 58 57 57 57 56 56 55 53 51 49
20 20 21 21 22 24 27 30 34 38 41 44 49 55 60 64 70 74 75 75 75 76 75 76 73 67 63 63 64 65 64 63 61 58 56 57 58 59 59 58 57 56 54 53
20 21 22 25 27 29 32 34 36 38 42 45 49 55 60 65 70 73 74 74 75 75 75 74 70 64 62 62 64 64 64 62 59 57 57 58 59 61 61 61 60 60 59 57
22 22 23 25 27 28 31 34 36 39 42 46 51 55 60 65 70 73 74 74 74 74 73 72 67 62 60 62 63 63 63 61 58 57 57 59 61 63 63 63 64 64 63 60
26 25 25 24 25 27 31 35 37 40 44 48 53 57 61 66 70 73 74 73 73 72 72 70 65 60 60 61 63 63 62 60 57 56 58 61 63 64 64 65 67 67 64 58
32 32 31 30 30 30 34 39 41 43 45 49 54 59 62 68 71 73 74 72 72 72 71 68 62 59 59 61 63 63 61 59 57 57 59 62 64 66 67 68 70 70 64 54
37 38 37 36 35 34 38 41 44 46 47 51 55 59 63 68 72 73 73 72 71 70 69 65 60 57 59 61 63 62 61 59 57 57 59 63 65 67 68 71 73 70 63 50
39 42 43 42 42 40 41 44 47 49 49 52 57 61 64 68 72 72 72 71 70 69 68 63 58 56 58 61 62 61 60 59 57 57 60 63 66 67 69 72 74 71 62 47
39 42 45 45 46 45 46 47 48 51 52 55 58 61 65 68 71 71 71 69 68 68 66 62 57 55 57 60 61 60 60 59 58 58 60 64 66 68 69 72 74 72 63 48
40 44 46 48 48 47 49 50 50 51 53 55 58 61 64 68 71 71 69 68 67 67 65 61 57 55 56 59 60 60 59 59 59 58 60 63 66 68 69 71 74 73 65 51
41 46 49 52 53 53 53 52 51 50 52 54 57 61 64 68 70 70 68 67 66 66 64 60 56 54 55 58 59 59 59 59 59 59 60 62 64 66 68 69 71 72 68 56
41 45 48 51 53 54 55 53 51 50 51 54 57 60 64 67 70 69 67 66 65 64 63 59 55 53 54 57 58 58 58 58 58 58 59 60 63 65 67 68 69 71 70 64
40 44 47 50 54 55 56 54 52 50 51 54 57 60 63 67 69 68 66 65 64 63 62 58 54 53 53 55 57 57 57 57 57 57 57 58 60 63 65 67 68 69 69 68
42 45 47 50 54 56 57 56 54 52 52 54 56 59 63 66 68 68 66 64 63 62 61 57 54 52 52 53 55 55 55 55 56 56 56 57 59 61 64 66 67 68 68 69
41 44 47 50 54 57 58 58 56 53 52 54 56 59 62 65 67 67 65 63 62 61 60 57 53 51 50 51 53 53 54 53 54 54 55 55 57 59 61 64 66 67 67 66
Wind_Direction
303 304 306 311 314 316 318 319 323 325 326 329 331 334 331 326 325 324 324 324 324 325 325 325 324 324 323 322 321 319 317 316 316 315 312 309 306 302 299 296 293 290 287 283
315 315 316 316 316 317 319 322 324 325 326 329 331 332 328 324 325 326 327 327 327 326 327 327 326 325 324 323 322 320 319 319 319 317 315 313 311 309 306 303 299 296 292 288
324 322 321 320 321 322 324 324 326 328 332 333 329 327 328 327 328 329 329 328 328 328 329 328 328 327 326 325 323 322 323 323 322 320 319 318 317 315 312 309 306 303 299 294
331 329 326 324 323 323 323 325 328 331 333 332 328 326 332 332 331 330 329 330 330 331 331 330 329 328 327 326 325 326 326 326 325 324 323 323 322 320 317 315 312 309 305 301
333 332 329 326 326 327 329 332 334 331 329 329 331 335 338 335 331 331 332 334 334 333 332 331 331 330 329 328 328 329 329 329 328 327 327 326 325 323 321 318 315 312 309 305
333 332 331 331 332 333 333 332 330 331 333 338 339 338 336 334 334 336 336 336 335 334 333 333 332 331 330 330 330 331 331 331 330 329 329 328 327 325 323 321 318 316 313 309
333 333 334 334 334 334 334 336 337 337 338 338 334 334 338 339 340 339 338 337 335 335 334 334 333 332 331 332 333 334 334 333 332 331 331 330 329 327 326 324 322 321 319 316
337 337 337 337 337 337 338 338 336 335 333 332 335 340 341 340 340 338 337 337 336 336 335 334 334 333 333 334 336 336 335 335 334 333 332 332 331 330 329 328 327 325 324 322
339 340 339 339 337 337 336 335 335 333 332 337 340 339 340 340 338 338 338 339 338 337 336 335 335 335 335 337 338 337 337 336 336 335 334 334 334 334 332 330 329 327 325 323
341 340 339 338 337 336 335 334 334 336 338 337 338 340 341 339 338 339 340 340 338 337 337 337 336 336 338 339 339 339 338 338 338 338 337 337 337 336 335 332 329 327 325 323
341 340 339 337 337 334 334 334 336 338 339 338 337 339 339 339 340 341 341 340 339 339 338 338 338 338 339 340 340 340 340 340 340 340 340 340 339 338 336 333 330 327 324 322
342 341 340 339 338 336 335 336 338 338 338 337 335 337 340 340 341 342 342 341 340 339 339 339 339 340 341 341 342 341 342 342 342 343 343 342 341 339 337 334 331 328 324 321
347 344 341 342 341 338 336 338 338 336 335 336 337 338 340 341 342 342 343 342 340 340 340 340 340 341 342 343 343 343 344 344 345 345 345 344 342 340 337 335 332 328 325 321
352 349 345 342 343 341 339 339 338 335 335 337 338 339 341 342 343 343 343 342 341 341 341 341 341 342 343 344 345 345 346 346 347 347 347 345 343 341 338 336 332 329 325 320
354 351 348 344 342 340 336 334 334 335 336 337 339 341 342 342 343 344 344 343 343 342 342 342 342 343 344 346 347 347 348 348 349 349 349 347 345 343 341 338 335 332 328 322
354 350 347 343 340 339 334 333 335 337 337 338 340 342 343 343 344 344 344 344 343 343 343 343 343 344 345 347 348 349 350 350 351 351 350 349 348 346 344 341 339 337 334 329
357 354 349 343 340 339 337 337 337 337 338 339 341 342 343 343 344 345 345 344 344 344 344 344 345 345 346 349 350 351 352 352 352 352 353 352 351 350 348 346 345 344 342 339
2 359 357 349 343 343 338 335 336 337 340 339 340 342 343 343 344 346 346 345 345 345 345 346 346 346 348 350 352 353 354 354 354 354 355 355 355 354 353 352 352 351 351 350
3 1 358 353 347 342 338 337 337 337 340 339 340 342 343 343 344 346 346 346 346 346 347 347 347 347 349 352 353 354 355 356 356 356 357 358 358 358 358 358 358 358 359 0
0 0 358 355 350 345 341 338 337 337 338 340 340 342 343 343 344 346 347 346 347 347 348 348 348 349 351 353 355 356 357 357 358 358 359 1 1 2 2 3 4 4 5 7
355 357 357 354 351 348 343 341 339 338 338 339 339 341 342 343 345 347 347 347 347 348 349 349 350 351 352 355 356 357 358 359 360 1 1 3 4 5 6 7 8 10 11 11
350 353 354 353 351 348 345 342 340 338 337 337 339 341 342 344 346 347 347 347 348 349 350 351 351 352 354 356 357 358 359 1 2 3 3 4 6 8 10 11 13 14 16 16
346 349 351 351 349 348 346 343 340 338 337 337 338 340 342 344 346 347 347 348 349 350 351 352 352 353 355 357 359 359 1 2 4 5 5 6 8 10 12 14 16 18 20 21
341 345 347 348 348 347 345 344 341 338 337 337 338 340 342 344 346 347 347 348 349 351 352 353 353 354 356 358 360 0 2 3 6 7 7 8 10 12 14 16 18 20 22 24
336 341 343 345 345 345 345 344 342 340 338 337 338 340 342 344 346 347 347 348 350 351 353 353 354 355 357 359 0 1 3 4 7 8 8 10 12 14 16 18 20 22 24 26
331 336 339 341 342 344 344 344 343 341 339 338 338 340 342 344 346 347 347 348 350 351 353 354 355 356 357 360 1 2 4 5 8 9 10 12 14 16 18 20 21 23 25 27
Height
5881 5880 5878 5876 5874 5873 5871 5869 5867 5864 5861 5858 5854 5851 5845 5839 5833 5826 5818 5810 5800 5789 5777 5765 5751 5738 5723 5708 5692 5676 5660 5644 5630 5618 5606 5596 5586 5576 5567 5559 5551 5546 5541 5538
5880 5878 5876 5874 5873 5871 5869 5866 5864 5863 5859 5854 5850 5847 5841 5834 5827 5820 5811 5801 5790 5779 5766 5752 5738 5724 5709 5693 5675 5658 5641 5627 5613 5600 5587 5576 5566 5556 5548 5539 5532 5525 5520 5516
5878 5877 5874 5872 5870 5868 5866 5863 5860 5858 5855 5851 5845 5842 5837 5828 5820 5812 5802 5792 5780 5767 5754 5740 5725 5710 5694 5677 5659 5641 5626 5611 5597 5584 5572 5561 5552 5542 5534 5526 5518 5510 5503 5498
5876 5874 5872 5870 5867 5865 5863 5861 5858 5854 5850 5847 5842 5835 5830 5821 5812 5803 5794 5782 5770 5756 5742 5728 5713 5696 5679 5661 5643 5627 5612 5597 5584 5571 5559 5548 5538 5528 5519 5511 5503 5495 5488 5482
5875 5873 5871 5868 5866 5863 5861 5857 5854 5850 5846 5842 5836 5828 5822 5813 5804 5796 5785 5772 5759 5746 5731 5716 5699 5682 5664 5647 5630 5614 5600 5585 5572 5559 5548 5536 5526 5516 5506 5497 5489 5481 5474 5467
5874 5871 5869 5866 5863 5861 5858 5855 5852 5847 5840 5833 5827 5822 5817 5809 5799 5787 5775 5763 5750 5736 5720 5703 5686 5669 5652 5635 5619 5604 5590 5576 5563 5550 5538 5526 5515 5505 5494 5485 5476 5468 5461 5453
5873 5870 5867 5864 5862 5859 5855 5851 5846 5839 5834 5830 5825 5819 5813 5801 5790 5779 5768 5756 5742 5726 5709 5693 5676 5659 5642 5625 5609 5594 5580 5567 5554 5541 5529 5517 5505 5493 5482 5472 5464 5456 5448 5441
5871 5869 5866 5862 5860 5857 5852 5849 5844 5838 5833 5829 5821 5812 5806 5796 5785 5774 5762 5748 5732 5716 5699 5683 5666 5648 5631 5615 5600 5586 5572 5558 5545 5533 5520 5508 5495 5483 5472 5462 5453 5445 5437 5429
5869 5867 5864 5860 5857 5854 5850 5846 5842 5836 5829 5821 5815 5809 5800 5790 5780 5769 5755 5739 5723 5707 5690 5673 5656 5639 5622 5606 5591 5578 5564 5550 5537 5524 5512 5499 5486 5474 5464 5454 5444 5436 5427 5419
5868 5866 5863 5859 5856 5852 5848 5843 5838 5832 5824 5816 5810 5803 5795 5784 5773 5760 5746 5731 5715 5698 5681 5664 5647 5630 5613 5598 5584 5570 5556 5542 5529 5516 5503 5490 5478 5467 5456 5446 5436 5427 5418 5409
5867 5865 5862 5858 5854 5850 5845 5840 5835 5828 5821 5812 5802 5800 5790 5777 5765 5752 5738 5722 5706 5690 5673 5656 5639 5622 5606 5592 5578 5564 5550 5536 5522 5509 5496 5483 5471 5459 5448 5437 5427 5417 5407 5398
5865 5863 5860 5857 5852 5847 5842 5836 5830 5825 5818 5810 5800 5794 5782 5770 5757 5744 5730 5714 5697 5681 5664 5648 5631 5615 5601 5587 5573 5558 5544 5529 5516 5502 5489 5477 5464 5452 5440 5428 5416 5406 5396 5386
5864 5861 5858 5854 5852 5847 5840 5834 5828 5821 5814 5806 5796 5789 5775 5763 5750 5736 5722 5706 5690 5674 5658 5641 5625 5610 5596 5582 5568 5553 5538 5523 5510 5496 5484 5471 5458 5445 5432 5419 5406 5394 5383 5373
5863 5859 5856 5851 5845 5840 5834 5829 5824 5817 5809 5801 5791 5781 5768 5756 5743 5729 5715 5700 5684 5668 5651 5635 5620 5605 5592 5578 5563 5548 5533 5518 5504 5491 5478 5465 5451 5437 5423 5408 5394 5381 5367 5355
5862 5859 5854 5849 5843 5838 5832 5827 5821 5814 5805 5796 5787 5777 5765 5752 5739 5724 5709 5694 5678 5662 5646 5630 5615 5601 5588 5574 5559 5544 5529 5514 5500 5487 5474 5460 5445 5429 5414 5398 5382 5366 5350 5335
5860 5857 5853 5849 5843 5837 5831 5824 5817 5809 5800 5791 5782 5772 5760 5747 5734 5719 5704 5689 5673 5657 5641 5626 5610 5597 5584 5570 5556 5540 5525 5511 5497 5483 5470 5455 5439 5423 5406 5389 5371 5352 5333 5316
5858 5854 5849 5845 5839 5834 5826 5819 5811 5804 5796 5786 5776 5767 5754 5741 5729 5714 5699 5684 5669 5653 5637 5621 5607 5593 5580 5567 5552 5536 5522 5507 5494 5480 5466 5451 5435 5418 5400 5381 5361 5340 5319 5301
5856 5850 5845 5840 5835 5828 5824 5814 5806 5798 5791 5780 5771 5760 5749 5737 5724 5710 5695 5680 5664 5648 5633 5618 5604 5591 5577 5564 5549 5533 5519 5505 5491 5478 5464 5448 5432 5414 5395 5375 5354 5332 5310 5293
5854 5848 5841 5835 5828 5823 5817 5809 5800 5792 5786 5776 5766 5755 5744 5732 5719 5706 5691 5675 5660 5645 5630 5615 5601 5588 5575 5561 5546 5532 5518 5504 5490 5476 5462 5447 5430 5412 5393 5373 5351 5329 5309 5292
5852 5846 5840 5832 5824 5817 5813 5804 5795 5787 5780 5771 5760 5750 5740 5728 5715 5702 5686 5671 5656 5641 5626 5612 5599 5586 5573 5559 5545 5531 5517 5503 5489 5475 5460 5445 5428 5410 5392 5373 5352 5330 5310 5295
5850 5844 5838 5830 5822 5815 5807 5798 5789 5782 5775 5765 5756 5746 5735 5723 5711 5697 5682 5667 5653 5638 5623 5609 5596 5584 5571 5558 5544 5530 5516 5502 5488 5474 5459 5445 5429 5412 5394 5375 5355 5335 5316 5301
5845 5839 5832 5824 5816 5811 5801 5792 5785 5779 5769 5760 5751 5741 5731 5719 5705 5691 5678 5664 5649 5635 5620 5606 5593 5582 5570 5557 5543 5530 5516 5502 5488 5474 5461 5446 5431 5416 5399 5381 5363 5344 5326 5310
5842 5836 5829 5823 5816 5807 5797 5789 5781 5773 5765 5756 5747 5737 5726 5714 5702 5688 5675 5661 5647 5632 5618 5604 5592 5580 5568 5556 5543 5530 5517 5504 5490 5476 5463 5449 5435 5420 5404 5388 5371 5353 5336 5320
5839 5833 5827 5819 5811 5804 5794 5785 5777 5768 5760 5751 5742 5732 5722 5710 5698 5685 5672 5658 5644 5630 5616 5603 5590 5579 5567 5555 5543 5530 5518 5505 5492 5479 5467 5453 5439 5424 5410 5394 5379 5363 5347 5332
5833 5828 5822 5816 5808 5800 5791 5782 5773 5764 5755 5747 5738 5728 5718 5706 5694 5681 5668 5655 5642 5628 5615 5602 5589 5578 5567 5555 5543 5532 5520 5507 5494 5482 5470 5457 5444 5430 5415 5400 5386 5371 5356 5341
5830 5824 5818 5812 5804 5796 5787 5778 5768 5759 5751 5742 5733 5724 5713 5702 5691 5678 5665 5652 5639 5626 5613 5600 5588 5577 5566 5555 5544 5533 5521 5509 5498 5486 5475 5462 5449 5436 5422 5408 5394 5380 5367 5354